Regional Weather Roundup
Issued by NWS Albany, NY

Home | Current Version | Previous Version | Text Only | Print | Product List | Glossary On
Versions: 1 2 3 4 5 6 7 8 9 10 11 12 13 14 15 16 17 18 19 20 21 22 23 24 25 26 27 28
000
ASUS41 KALY 242210
RWRALY

NEW YORK STATE HOURLY WEATHER ROUNDUP
NATIONAL WEATHER SERVICE ALBANY NY
600 PM EDT MON JUL 24 2017

NOTE: "FAIR" INDICATES FEW OR NO CLOUDS BELOW 12,000 FEET WITH NO
SIGNIFICANT WEATHER AND/OR NO OBSTRUCTIONS TO VISIBILITY.

NYZ032-033-038>043-046>054-057>066-NYZ062>081-082-084-242300-
EAST


CITY           SKY/WX    TMP DP  RH WIND       PRES   REMARKS
ALBANY         CLOUDY    65  57  75 CALM      29.89R
GLENS FALLS    CLOUDY    62  55  77 N7        29.90R
POUGHKEEPSIE   CLOUDY    66  57  72 NE7       29.87R
NEWBURGH       CLOUDY    68  61  77 NE12      29.89S
MONTGOMERY     CLOUDY    68  60  75 N9        29.87R
WHITE PLAINS   PTSUNNY   68  58  70 NE6       29.87R
ISLIP          CLOUDY    66  60  81 N14       29.85R
NEW YORK CITY  CLOUDY    68  60  75 E9        29.86R
CENTRAL PARK   CLOUDY    68  61  78 VRB3      29.89R
$$

NYZ005>009-017-018-044>046-055-056-242300-
CENTRAL


CITY           SKY/WX    TMP DP  RH WIND       PRES   REMARKS
FULTON         CLOUDY    69  65  86 VRB3      29.81R
SYRACUSE       LGT RAIN  64  62  93 NE10      29.81R
ROME           MOSUNNY   63  58  83 E12       29.84R
ELMIRA         MOSUNNY   78  64  61 NW7       29.79R
BINGHAMTON     NOT AVBL
$$

NYZ026>034-041>043-087-242300-
NORTH


CITY           SKY/WX    TMP DP  RH WIND       PRES   REMARKS
WATERTOWN      CLOUDY    69  65  86 S7        29.80R
FORT DRUM      NOT AVBL
OGDENSBURG     RAIN      62  61  96 E10       29.81S
MASSENA        LGT RAIN  60  59  96 NE15      29.87R
SARANAC LAKE   CLOUDY    60  54  80 SE6       29.88S
PLATTSBURGH    CLOUDY    60  56  86 CALM      29.92S
$$

NYZ001>004-010>016-019>021-085-242300-
WEST


CITY           SKY/WX    TMP DP  RH WIND       PRES   REMARKS
NIAGARA FALLS  LGT RAIN  68  62  81 N15       29.83R
BUFFALO        LGT RAIN  71  61  70 W8        29.83R
DUNKIRK        CLOUDY    68  60  75 W10G22    29.88R
JAMESTOWN      CLOUDY    63  55  77 W12G18    29.91R
WELLSVILLE     PTSUNNY   68  57  68 W13G23    29.90R
ROCHESTER      PTSUNNY   71  63  75 N9        29.82R
PENN YAN       CLOUDY    76  60  57 VRB7G18   29.81R
$$

             KEY
       WCI = WIND CHILL INDEX
       VSB = VISIBILITY
       HX  = HEAT INDEX
$$




USA.gov is the U.S. government's official web portal to all federal, state and local government web resources and services.